Wind_Speed
19 19 19 19 20 20 21 21 21 22 22 22 22 22 22 23 23 22 22 22 22 23 23 23 23 24 24 24 24 24 24 24 23 23 22 22 22 22 23 24 24 23 23
20 20 20 21 21 22 23 23 23 23 23 23 23 23 23 23 24 24 24 24 24 24 24 24 24 24 24 24 24 24 24 24 23 23 23 22 22 22 22 22 23 23 23
20 21 21 22 22 23 24 24 24 24 24 24 24 24 25 25 25 25 25 25 25 25 25 25 25 25 25 24 24 24 24 23 23 23 23 23 22 22 22 22 22 23 23
21 22 22 23 23 24 24 24 25 25 25 25 25 25 25 26 26 26 26 26 26 26 26 26 26 26 26 26 25 25 25 25 24 23 23 22 22 22 22 22 22 23 23
22 23 23 24 24 24 25 25 26 27 26 25 25 26 26 26 26 27 27 27 27 26 26 26 26 26 26 25 25 24 25 25 24 22 22 23 23 22 23 23 23 23 24
23 23 24 25 25 25 26 26 27 27 27 27 27 27 27 27 28 27 27 26 26 26 26 26 26 26 25 25 25 25 25 24 24 24 23 23 23 23 24 24 24 25 25
24 25 25 25 25 26 26 26 26 27 27 27 27 28 28 28 28 27 27 27 27 26 26 26 26 26 26 26 26 26 25 25 25 26 25 25 24 25 25 25 25 25 25
26 26 26 26 26 26 26 26 26 26 26 26 26 26 27 27 27 26 26 26 26 26 26 26 26 26 27 27 26 26 27 27 27 26 26 27 26 26 26 26 26 26 26
26 26 26 26 26 27 27 27 26 27 26 26 26 26 26 25 25 26 26 25 25 25 26 25 25 25 26 26 26 27 27 27 27 27 27 27 28 28 28 27 27 27 27
26 26 26 26 26 27 27 27 27 27 26 26 26 25 25 25 25 26 26 26 26 25 26 26 26 26 26 27 27 28 28 29 29 28 28 28 29 29 29 29 28 28 28
27 27 27 27 27 27 27 27 27 27 27 26 25 25 25 25 25 26 26 26 26 25 26 26 26 27 27 27 28 27 28 29 29 29 29 29 30 30 30 30 30 30 30
27 28 28 28 28 27 27 27 27 27 26 26 25 25 25 25 25 26 27 27 27 27 26 25 26 27 28 28 28 28 28 29 29 29 29 29 30 30 30 30 30 30 31
27 28 28 28 28 28 28 27 27 27 26 26 26 25 26 26 26 26 27 27 27 26 26 26 27 28 28 28 28 28 29 29 30 30 30 30 30 30 31 31 31 30 31
28 29 28 28 28 28 27 26 26 26 25 26 26 26 26 25 26 26 26 27 27 27 28 28 28 28 28 28 28 28 28 29 30 31 31 30 30 31 31 31 31 31 31
28 28 28 27 28 27 27 27 27 27 26 26 26 26 26 26 26 26 26 26 26 27 28 28 28 28 28 28 29 29 29 29 30 31 31 31 31 31 31 31 31 32 31
28 28 28 27 27 27 27 27 27 27 27 27 27 27 26 26 26 26 26 26 26 27 27 27 28 29 28 28 28 29 30 30 30 30 31 31 31 32 32 32 31 31 32
28 28 28 28 27 27 27 27 27 26 26 27 27 27 26 26 26 26 26 27 27 27 27 28 28 29 29 28 28 29 29 29 30 30 30 30 30 30 31 31 32 32 32
28 28 27 27 27 27 27 27 27 26 26 26 27 27 27 26 26 27 27 27 27 27 27 28 28 28 28 27 27 28 28 28 28 28 28 29 29 29 29 30 31 31 32
27 27 27 26 26 27 27 27 27 27 26 26 27 26 26 26 26 27 27 27 27 27 28 28 28 28 28 27 28 27 27 26 26 26 26 27 28 28 29 29 30 31 32
27 26 26 27 27 27 27 28 27 27 27 27 27 27 26 26 26 25 25 26 26 27 27 28 27 27 26 26 26 27 27 26 26 26 27 27 28 29 30 30 30 31 32
26 26 26 27 27 27 27 27 26 26 26 26 26 26 25 25 25 25 25 25 25 26 26 26 26 26 26 26 26 26 26 26 25 26 27 28 30 30 31 31 32 32 32
25 26 26 26 26 27 27 26 26 26 25 25 25 24 24 24 25 25 25 25 25 25 24 24 24 25 25 25 25 25 26 26 26 27 28 29 30 30 31 31 31 32 32
24 24 25 25 25 25 25 24 24 25 25 24 24 25 25 24 24 25 25 25 25 26 26 25 25 25 25 25 25 26 26 27 27 28 28 29 29 29 30 30 30 31 31
24 24 24 24 24 24 24 24 24 24 24 25 25 25 24 24 25 25 25 25 26 26 26 26 26 25 25 26 26 26 27 28 29 29 30 30 29 29 29 29 29 30 30
24 24 24 24 24 24 24 24 24 24 24 24 24 24 24 24 24 25 25 25 26 26 25 26 26 27 27 27 27 27 27 27 27 28 29 29 29 29 29 28 28 29 29
24 24 24 24 24 24 24 24 24 24 24 25 24 24 24 24 25 25 25 25 26 26 26 27 27 28 28 28 28 28 28 28 28 27 27 28 28 28 29 29 29 29 30
Wind_Direction
273 275 277 279 279 278 279 280 281 280 279 280 280 280 279 279 278 278 279 279 278 276 273 272 271 270 269 269 270 271 271 272 272 270 271 268 264 261 260 259 258 257 256
273 274 278 280 280 280 280 280 280 281 280 279 280 279 278 278 277 277 277 279 277 276 274 273 272 271 271 270 270 270 271 270 269 269 270 268 263 260 260 260 259 257 255
274 275 278 280 281 282 282 281 280 280 280 280 279 277 278 279 278 278 278 279 276 275 274 273 273 272 271 269 269 269 269 269 268 268 267 266 262 261 262 261 259 259 256
274 276 278 280 282 282 282 281 281 281 280 281 280 279 279 280 279 278 279 279 277 275 273 272 272 271 270 269 269 268 267 267 267 266 265 265 263 262 263 262 260 260 257
276 278 279 281 282 282 281 281 281 282 282 282 280 280 280 280 279 278 280 278 277 274 273 270 269 270 269 268 267 267 268 266 263 263 266 265 263 262 263 262 262 261 259
275 278 280 281 282 282 282 282 282 283 283 281 279 280 280 280 279 278 279 277 277 274 272 270 268 268 266 267 266 265 264 262 261 264 266 264 263 263 263 262 262 262 260
275 278 280 282 284 284 283 283 283 283 284 281 281 279 279 279 278 277 278 277 277 275 273 272 269 268 267 267 265 262 261 262 265 263 263 263 263 263 262 261 262 262 261
277 279 282 284 285 285 284 283 283 284 284 284 283 282 280 279 278 276 277 278 278 277 274 272 269 269 268 267 265 263 264 265 264 264 263 263 264 264 263 261 262 264 263
276 278 281 284 285 286 285 284 283 283 283 283 284 282 280 279 278 277 278 279 279 279 275 272 269 269 269 269 266 264 264 264 262 264 265 264 264 263 264 262 263 264 263
274 276 279 282 284 285 286 285 284 283 282 282 282 281 281 280 279 279 279 280 279 278 275 271 271 271 272 270 268 266 265 264 263 264 265 264 263 263 262 261 262 263 262
275 276 279 281 284 284 285 285 285 283 281 281 280 280 281 281 280 280 279 281 280 279 277 273 272 273 273 271 268 267 266 264 264 265 265 263 262 263 262 261 262 261 260
277 277 279 282 283 284 285 286 285 283 281 280 279 279 280 280 279 279 280 281 280 277 275 273 273 274 275 272 271 270 268 267 266 266 266 265 263 262 262 261 260 260 260
278 278 280 282 283 283 284 284 284 284 282 280 280 280 280 280 278 278 279 279 278 276 276 275 274 275 276 274 274 271 267 266 266 265 266 265 263 262 260 260 260 260 259
279 280 281 282 282 282 283 283 284 284 282 281 281 280 280 280 278 277 278 278 277 276 276 276 275 277 277 276 275 273 270 268 268 266 265 264 263 262 260 260 260 260 260
280 280 279 279 280 280 281 283 284 284 284 282 279 280 281 281 280 278 277 276 277 276 275 275 275 276 276 274 274 273 273 272 270 268 265 263 262 261 261 260 260 259 260
279 279 280 279 279 279 280 282 284 284 284 283 283 282 281 282 282 279 277 276 277 278 277 276 276 276 276 276 274 273 272 272 272 271 267 264 262 261 261 261 261 261 261
278 279 279 279 279 278 280 280 281 283 284 285 286 285 284 282 280 281 280 278 277 277 278 277 276 276 275 275 275 274 273 271 271 270 267 265 263 261 260 260 260 260 260
278 278 280 278 277 277 279 280 280 282 284 285 286 285 285 284 282 280 279 278 277 278 279 279 278 277 277 276 275 274 273 271 269 267 266 264 262 261 260 260 261 261 261
277 276 276 276 277 277 278 280 281 282 284 285 286 285 284 284 284 282 279 277 277 278 279 279 278 278 278 276 274 274 273 270 268 265 265 265 263 261 261 261 262 262 263
277 276 275 274 275 276 278 279 280 281 283 284 284 284 284 285 285 285 283 281 279 280 281 282 281 279 278 278 277 275 274 271 268 266 266 266 264 262 262 263 263 263 263
277 276 275 276 277 278 279 279 279 280 282 283 284 285 284 284 285 285 284 282 283 283 283 283 282 281 280 279 278 276 274 272 269 268 268 268 266 265 264 263 264 264 263
278 277 278 279 279 279 279 279 279 280 281 283 284 285 284 283 284 284 283 282 281 281 282 284 283 281 279 279 277 275 273 272 271 272 271 271 269 267 265 264 264 265 265
278 279 279 279 279 280 280 279 279 280 281 283 284 285 285 284 283 283 282 282 281 280 280 281 282 282 281 279 277 275 273 272 272 272 271 272 271 270 267 265 265 266 266
278 277 277 278 280 282 282 280 280 281 281 282 283 285 285 284 285 284 283 282 281 281 281 280 281 283 283 281 279 277 275 273 272 271 272 272 271 270 269 268 267 267 267
278 277 277 277 280 281 280 280 279 279 281 283 284 284 285 285 285 286 286 285 284 283 283 282 282 283 284 283 280 277 277 276 273 271 271 272 271 269 268 268 267 267 267
276 276 276 278 279 279 279 279 279 279 280 282 283 283 284 285 286 287 288 287 286 284 283 283 283 282 282 283 282 280 278 276 275 273 272 272 271 269 269 269 268 266 266
Height
5802 5801 5800 5799 5797 5796 5795 5793 5792 5790 5789 5787 5786 5785 5783 5782 5781 5780 5779 5778 5776 5775 5774 5774 5773 5772 5771 5771 5770 5769 5768 5768 5767 5767 5766 5765 5765 5765 5766 5766 5767 5768 5769
5797 5796 5795 5793 5792 5790 5789 5787 5786 5784 5782 5781 5779 5778 5777 5776 5774 5773 5772 5771 5770 5769 5768 5767 5766 5765 5764 5763 5763 5762 5762 5761 5761 5760 5759 5759 5759 5759 5760 5760 5760 5761 5762
5791 5790 5789 5787 5786 5784 5782 5780 5779 5777 5775 5774 5772 5771 5770 5768 5767 5766 5765 5764 5762 5761 5760 5760 5759 5758 5757 5756 5755 5755 5754 5754 5753 5753 5753 5752 5752 5753 5753 5754 5754 5755 5756
5784 5783 5782 5781 5779 5777 5775 5773 5771 5769 5768 5766 5765 5763 5762 5760 5759 5758 5757 5756 5755 5753 5752 5752 5751 5750 5749 5748 5748 5747 5747 5746 5746 5746 5746 5746 5746 5747 5747 5747 5748 5749 5749
5778 5777 5775 5774 5772 5770 5768 5766 5764 5761 5760 5758 5757 5755 5754 5752 5751 5750 5749 5748 5746 5745 5744 5743 5742 5741 5741 5740 5740 5740 5739 5739 5739 5739 5739 5739 5740 5740 5741 5741 5742 5742 5743
5771 5769 5768 5766 5764 5762 5760 5758 5756 5753 5751 5749 5748 5747 5746 5744 5743 5742 5740 5739 5738 5737 5736 5735 5734 5734 5733 5733 5733 5732 5732 5732 5732 5733 5733 5733 5733 5733 5734 5734 5735 5735 5736
5763 5762 5760 5758 5756 5754 5752 5750 5748 5745 5743 5741 5739 5738 5737 5736 5734 5733 5732 5731 5730 5729 5728 5727 5726 5726 5725 5725 5725 5725 5725 5725 5725 5726 5726 5726 5726 5727 5727 5727 5727 5728 5728
5755 5754 5752 5750 5748 5746 5744 5742 5739 5737 5735 5733 5731 5730 5728 5727 5726 5725 5724 5722 5721 5720 5719 5719 5718 5718 5718 5717 5717 5717 5717 5717 5717 5718 5718 5718 5719 5719 5719 5719 5719 5720 5720
5747 5746 5744 5743 5741 5738 5736 5734 5732 5729 5727 5725 5723 5722 5720 5719 5718 5717 5716 5715 5713 5712 5711 5711 5710 5710 5710 5709 5709 5709 5709 5709 5709 5709 5709 5710 5710 5710 5711 5711 5711 5712 5712
5739 5738 5737 5735 5733 5731 5728 5726 5724 5721 5719 5717 5716 5714 5713 5712 5711 5710 5708 5707 5706 5705 5704 5704 5703 5702 5702 5701 5701 5701 5700 5700 5700 5700 5701 5701 5701 5701 5702 5702 5703 5703 5704
5731 5730 5728 5727 5725 5723 5720 5718 5716 5713 5711 5710 5708 5707 5706 5705 5704 5702 5701 5699 5698 5697 5696 5696 5695 5695 5694 5692 5692 5691 5691 5691 5691 5691 5691 5692 5692 5692 5692 5693 5694 5694 5695
5722 5721 5719 5718 5716 5714 5712 5710 5707 5705 5704 5702 5701 5700 5698 5697 5696 5694 5693 5691 5690 5689 5688 5688 5687 5687 5685 5684 5683 5682 5682 5681 5681 5682 5682 5682 5683 5683 5683 5684 5684 5685 5686
5713 5712 5710 5709 5707 5705 5703 5701 5700 5698 5696 5694 5693 5692 5690 5689 5688 5686 5684 5683 5681 5680 5680 5680 5679 5678 5677 5675 5674 5673 5673 5672 5672 5672 5673 5673 5673 5673 5674 5674 5675 5676 5676
5705 5703 5701 5700 5698 5696 5695 5693 5692 5690 5688 5686 5685 5684 5682 5681 5679 5678 5676 5675 5673 5673 5672 5671 5671 5670 5668 5667 5665 5664 5664 5663 5663 5663 5663 5663 5663 5664 5664 5665 5666 5666 5667
5695 5694 5692 5690 5689 5688 5686 5685 5684 5682 5680 5679 5677 5676 5674 5673 5671 5669 5668 5666 5665 5664 5663 5662 5662 5661 5659 5658 5657 5656 5655 5654 5653 5653 5653 5653 5654 5654 5655 5655 5656 5657 5658
5686 5685 5683 5682 5680 5679 5678 5677 5675 5674 5672 5670 5669 5667 5666 5664 5662 5661 5659 5658 5657 5656 5654 5653 5652 5652 5651 5649 5648 5647 5646 5646 5645 5644 5643 5643 5644 5645 5645 5646 5647 5648 5649
5677 5676 5675 5673 5672 5671 5669 5668 5667 5665 5663 5662 5660 5659 5657 5656 5654 5653 5651 5650 5648 5647 5646 5645 5644 5643 5642 5640 5640 5639 5638 5637 5636 5635 5635 5635 5635 5636 5636 5637 5638 5639 5640
5668 5667 5666 5664 5663 5662 5661 5660 5658 5657 5655 5653 5652 5650 5649 5647 5646 5644 5643 5641 5640 5639 5637 5636 5635 5634 5632 5631 5631 5630 5629 5628 5627 5627 5626 5626 5627 5627 5628 5629 5630 5630 5631
5659 5658 5657 5656 5655 5654 5653 5651 5650 5648 5647 5645 5643 5642 5640 5638 5637 5635 5634 5633 5631 5630 5629 5628 5626 5625 5624 5623 5622 5621 5620 5620 5619 5619 5619 5619 5619 5619 5620 5620 5621 5621 5622
5650 5649 5648 5647 5647 5645 5644 5643 5641 5640 5638 5636 5635 5633 5632 5630 5628 5627 5626 5624 5623 5622 5621 5619 5618 5616 5616 5615 5614 5613 5612 5612 5611 5611 5611 5611 5611 5611 5612 5612 5612 5612 5613
5641 5640 5639 5639 5638 5637 5635 5634 5632 5631 5630 5628 5626 5625 5623 5622 5620 5619 5618 5616 5615 5614 5613 5611 5610 5609 5608 5606 5605 5604 5604 5604 5604 5603 5603 5603 5603 5603 5603 5603 5603 5603 5604
5632 5631 5631 5630 5629 5628 5627 5625 5624 5623 5621 5620 5618 5617 5615 5614 5612 5611 5610 5609 5608 5607 5605 5604 5602 5601 5600 5599 5598 5596 5596 5596 5596 5595 5595 5595 5594 5594 5594 5594 5594 5594 5594
5624 5623 5622 5622 5621 5620 5618 5617 5616 5615 5613 5612 5611 5609 5608 5606 5605 5603 5602 5601 5600 5599 5597 5596 5595 5593 5592 5591 5590 5589 5588 5588 5587 5586 5586 5585 5585 5585 5585 5585 5585 5584 5584
5616 5615 5614 5613 5613 5612 5610 5609 5608 5607 5606 5604 5603 5602 5600 5599 5597 5596 5594 5593 5591 5590 5589 5588 5586 5585 5584 5582 5582 5581 5580 5579 5578 5578 5577 5576 5576 5575 5575 5575 5575 5575 5575
5608 5607 5606 5605 5605 5604 5603 5601 5600 5599 5598 5597 5595 5594 5592 5591 5589 5587 5586 5584 5583 5582 5580 5579 5578 5577 5576 5574 5573 5572 5571 5570 5569 5568 5568 5567 5567 5566 5566 5566 5566 5566 5566
5600 5599 5598 5597 5596 5595 5594 5593 5592 5591 5590 5589 5587 5586 5584 5583 5581 5579 5578 5576 5575 5573 5572 5570 5569 5568 5567 5565 5564 5563 5562 5561 5560 5559 5558 5558 5557 5557 5557 5557 5557 5557 5557